Time,TemperatureF,DewpointF,PressureIn,WindDirection,WindDirectionDegrees,WindSpeedMPH,WindSpeedGustMPH,Humidity,HourlyPrecipIn,Conditions,Clouds,dailyrainin,SoftwareType,DateUTC
2013-03-14 00:02:00,34.0,31.0,29.00,SSE,159,9.0,-999.0,87,19.53,,,-99.99,,2013-03-14 05:02:00,
2013-03-14 00:12:00,34.0,31.0,29.00,SSE,159,9.0,-999.0,87,19.53,,,-99.99,,2013-03-14 05:12:00,
2013-03-14 00:22:00,34.0,31.0,28.98,South,184,8.0,-999.0,89,19.53,,,-99.99,,2013-03-14 05:22:00,
2013-03-14 00:33:00,34.0,31.0,28.98,South,184,8.0,-999.0,89,19.53,,,-99.99,,2013-03-14 05:33:00,
2013-03-14 00:42:00,34.0,31.0,28.98,South,184,8.0,-999.0,89,19.53,,,-99.99,,2013-03-14 05:42:00,
2013-03-14 00:53:00,34.0,31.0,28.98,South,179,9.0,-999.0,88,19.53,,,-99.99,,2013-03-14 05:53:00,
2013-03-14 01:02:00,34.0,31.0,28.98,South,179,9.0,-999.0,88,19.53,,,-99.99,,2013-03-14 06:02:00,
2013-03-14 01:12:00,34.0,31.0,28.98,South,179,9.0,-999.0,88,19.53,,,-99.99,,2013-03-14 06:12:00,
2013-03-14 01:22:00,34.0,31.0,28.95,South,173,10.0,-999.0,88,19.53,,,-99.99,,2013-03-14 06:22:00,
2013-03-14 01:33:00,34.0,31.0,28.95,South,173,10.0,-999.0,88,19.53,,,-99.99,,2013-03-14 06:33:00,
2013-03-14 01:42:00,34.0,31.0,28.95,South,173,10.0,-999.0,88,19.53,,,-99.99,,2013-03-14 06:42:00,
2013-03-14 01:52:00,34.0,31.0,28.95,SSW,194,9.0,-999.0,88,19.53,,,-99.99,,2013-03-14 06:52:00,
2013-03-14 02:02:00,34.0,31.0,28.95,SSW,194,9.0,-999.0,88,19.53,,,-99.99,,2013-03-14 07:02:00,
2013-03-14 02:12:00,34.0,31.0,28.95,SSW,194,9.0,-999.0,88,19.53,,,-99.99,,2013-03-14 07:12:00,
2013-03-14 02:22:00,35.0,32.0,28.92,South,172,9.0,-999.0,88,19.53,,,-99.99,,2013-03-14 07:22:00,
2013-03-14 02:32:00,35.0,32.0,28.92,South,172,9.0,-999.0,88,19.53,,,-99.99,,2013-03-14 07:32:00,
2013-03-14 02:43:00,35.0,32.0,28.92,South,172,9.0,-999.0,88,19.53,,,-99.99,,2013-03-14 07:43:00,
2013-03-14 02:52:00,36.0,33.0,28.91,South,179,12.0,-999.0,87,19.53,,,-99.99,,2013-03-14 07:52:00,
2013-03-14 03:02:00,36.0,33.0,28.91,South,179,12.0,-999.0,87,19.53,,,-99.99,,2013-03-14 08:02:00,
2013-03-14 03:12:00,36.0,33.0,28.91,South,179,12.0,-999.0,87,19.53,,,-99.99,,2013-03-14 08:12:00,
2013-03-14 03:21:00,36.0,33.0,28.91,SSW,198,10.0,-999.0,87,19.53,,,-99.99,,2013-03-14 08:21:00,
2013-03-14 03:32:00,36.0,33.0,28.91,SSW,198,10.0,-999.0,87,19.53,,,-99.99,,2013-03-14 08:32:00,
2013-03-14 03:42:00,36.0,33.0,28.91,SSW,198,10.0,-999.0,87,19.53,,,-99.99,,2013-03-14 08:42:00,
2013-03-14 03:52:00,36.0,33.0,28.90,SW,217,7.0,-999.0,89,19.53,,,-99.99,,2013-03-14 08:52:00,
2013-03-14 04:01:00,36.0,33.0,28.90,SW,217,7.0,-999.0,89,19.53,,,-99.99,,2013-03-14 09:01:00,
2013-03-14 04:12:00,36.0,33.0,28.90,SW,217,7.0,-999.0,89,19.53,,,-99.99,,2013-03-14 09:12:00,
2013-03-14 04:22:00,35.0,32.0,28.88,South,176,7.0,-999.0,90,19.53,,,-99.99,,2013-03-14 09:22:00,
2013-03-14 04:32:00,35.0,32.0,28.88,South,176,7.0,-999.0,90,19.53,,,-99.99,,2013-03-14 09:32:00,
2013-03-14 04:42:00,35.0,32.0,28.88,South,176,7.0,-999.0,90,19.53,,,-99.99,,2013-03-14 09:42:00,
2013-03-14 04:52:00,35.0,33.0,28.87,SSE,166,7.0,-999.0,91,19.53,,,-99.99,,2013-03-14 09:52:00,
2013-03-14 05:02:00,35.0,33.0,28.87,SSE,166,7.0,-999.0,91,19.53,,,-99.99,,2013-03-14 10:02:00,
2013-03-14 05:12:00,35.0,33.0,28.87,SSE,166,7.0,-999.0,91,19.53,,,-99.99,,2013-03-14 10:12:00,
2013-03-14 05:22:00,35.0,33.0,28.86,South,188,7.0,-999.0,91,19.53,,,-99.99,,2013-03-14 10:22:00,
2013-03-14 05:32:00,35.0,33.0,28.86,South,188,7.0,-999.0,91,19.53,,,-99.99,,2013-03-14 10:32:00,
2013-03-14 05:42:00,35.0,33.0,28.86,South,188,7.0,-999.0,91,19.53,,,-99.99,,2013-03-14 10:42:00,
2013-03-14 05:52:00,35.0,33.0,28.84,South,190,5.0,-999.0,92,19.53,,,-99.99,,2013-03-14 10:52:00,
2013-03-14 06:02:00,35.0,33.0,28.84,South,190,5.0,-999.0,92,19.53,,,-99.99,,2013-03-14 11:02:00,
2013-03-14 06:12:00,35.0,33.0,28.84,South,179,9.0,-999.0,92,19.53,,,-99.99,,2013-03-14 11:12:00,
2013-03-14 06:22:00,35.0,33.0,28.84,South,179,9.0,-999.0,92,19.53,,,-99.99,,2013-03-14 11:22:00,
2013-03-14 06:33:00,35.0,33.0,28.84,South,179,9.0,-999.0,92,19.53,,,-99.99,,2013-03-14 11:33:00,
2013-03-14 06:42:00,35.0,33.0,28.84,South,179,9.0,-999.0,92,19.53,,,-99.99,,2013-03-14 11:42:00,
2013-03-14 06:52:00,35.0,33.0,28.84,SSE,166,3.0,-999.0,92,19.53,,,-99.99,,2013-03-14 11:52:00,
2013-03-14 07:02:00,35.0,33.0,28.84,SSE,166,3.0,-999.0,92,19.53,,,-99.99,,2013-03-14 12:02:00,
2013-03-14 07:12:00,35.0,33.0,28.84,SSE,166,3.0,-999.0,92,19.53,,,-99.99,,2013-03-14 12:12:00,
2013-03-14 07:22:00,34.0,32.0,28.82,South,181,6.0,-999.0,93,19.53,,,-99.99,,2013-03-14 12:22:00,
2013-03-14 07:33:00,34.0,32.0,28.82,South,181,6.0,-999.0,93,19.53,,,-99.99,,2013-03-14 12:33:00,
2013-03-14 07:42:00,34.0,32.0,28.82,South,181,6.0,-999.0,93,19.53,,,-99.99,,2013-03-14 12:42:00,
2013-03-14 07:52:00,34.0,32.0,28.83,South,173,0.0,-999.0,93,19.53,,,-99.99,,2013-03-14 12:52:00,
2013-03-14 08:02:00,34.0,32.0,28.83,South,173,0.0,-999.0,93,19.53,,,-99.99,,2013-03-14 13:02:00,
2013-03-14 08:12:00,34.0,32.0,28.83,South,173,0.0,-999.0,93,19.53,,,-99.99,,2013-03-14 13:12:00,
2013-03-14 08:22:00,33.0,31.0,28.83,South,173,0.0,-999.0,94,19.53,,,-99.99,,2013-03-14 13:22:00,
2013-03-14 08:32:00,33.0,31.0,28.83,South,173,0.0,-999.0,94,19.53,,,-99.99,,2013-03-14 13:32:00,
2013-03-14 08:43:00,33.0,31.0,28.83,South,173,0.0,-999.0,94,19.53,,,-99.99,,2013-03-14 13:43:00,
2013-03-14 08:52:00,33.0,31.0,28.84,South,173,0.0,-999.0,94,19.53,,,-99.99,,2013-03-14 13:52:00,
2013-03-14 09:02:00,33.0,31.0,28.84,South,173,0.0,-999.0,94,19.53,,,-99.99,,2013-03-14 14:02:00,
2013-03-14 09:12:00,33.0,31.0,28.84,South,173,0.0,-999.0,94,19.53,,,-99.99,,2013-03-14 14:12:00,
2013-03-14 09:22:00,35.0,33.0,28.84,South,173,0.0,-999.0,93,19.53,,,-99.99,,2013-03-14 14:22:00,
2013-03-14 09:32:00,35.0,33.0,28.84,South,173,0.0,-999.0,93,19.53,,,-99.99,,2013-03-14 14:32:00,
2013-03-14 09:42:00,35.0,33.0,28.84,South,173,0.0,-999.0,93,19.53,,,-99.99,,2013-03-14 14:42:00,
2013-03-14 09:53:00,36.0,34.0,28.85,SW,218,0.0,-999.0,92,19.53,,,-99.99,,2013-03-14 14:53:00,
2013-03-14 10:02:00,36.0,34.0,28.85,SW,218,0.0,-999.0,92,19.53,,,-99.99,,2013-03-14 15:02:00,
2013-03-14 10:12:00,36.0,34.0,28.85,SW,218,0.0,-999.0,92,19.53,,,-99.99,,2013-03-14 15:12:00,
2013-03-14 10:22:00,37.0,35.0,28.86,West,276,4.0,-999.0,91,19.53,,,-99.99,,2013-03-14 15:22:00,
2013-03-14 10:33:00,37.0,35.0,28.86,West,276,4.0,-999.0,91,19.53,,,-99.99,,2013-03-14 15:33:00,
2013-03-14 10:43:00,37.0,35.0,28.86,West,276,4.0,-999.0,91,19.53,,,-99.99,,2013-03-14 15:43:00,
2013-03-14 10:52:00,39.0,37.0,28.86,WSW,249,0.0,-999.0,91,19.53,,,-99.99,,2013-03-14 15:52:00,
2013-03-14 11:02:00,39.0,37.0,28.86,WSW,249,0.0,-999.0,91,19.53,,,-99.99,,2013-03-14 16:02:00,
2013-03-14 11:12:00,39.0,37.0,28.86,WSW,249,0.0,-999.0,91,19.53,,,-99.99,,2013-03-14 16:12:00,
2013-03-14 11:22:00,40.0,37.0,28.86,West,277,0.0,-999.0,90,19.53,,,-99.99,,2013-03-14 16:22:00,
2013-03-14 11:33:00,40.0,37.0,28.86,West,277,0.0,-999.0,90,19.53,,,-99.99,,2013-03-14 16:33:00,
2013-03-14 11:42:00,40.0,37.0,28.86,West,277,0.0,-999.0,90,19.53,,,-99.99,,2013-03-14 16:42:00,
2013-03-14 11:52:00,41.0,38.0,28.87,West,271,0.0,-999.0,89,19.53,,,-99.99,,2013-03-14 16:52:00,
2013-03-14 12:02:00,41.0,38.0,28.87,West,271,0.0,-999.0,89,19.53,,,-99.99,,2013-03-14 17:02:00,
2013-03-14 12:12:00,41.0,38.0,28.87,West,271,0.0,-999.0,89,19.53,,,-99.99,,2013-03-14 17:12:00,
2013-03-14 12:23:00,45.0,41.0,28.87,NW,316,3.0,-999.0,86,19.53,,,-99.99,,2013-03-14 17:23:00,
2013-03-14 12:33:00,45.0,41.0,28.87,NW,316,3.0,-999.0,86,19.53,,,-99.99,,2013-03-14 17:33:00,
2013-03-14 12:42:00,45.0,41.0,28.87,NW,316,3.0,-999.0,86,19.53,,,-99.99,,2013-03-14 17:42:00,
2013-03-14 12:52:00,46.0,41.0,28.89,North,353,4.0,-999.0,84,19.53,,,-99.99,,2013-03-14 17:52:00,
2013-03-14 13:02:00,46.0,41.0,28.89,North,353,4.0,-999.0,84,19.53,,,-99.99,,2013-03-14 18:02:00,
2013-03-14 13:12:00,46.0,41.0,28.89,North,353,4.0,-999.0,84,19.53,,,-99.99,,2013-03-14 18:12:00,
2013-03-14 13:22:00,47.0,43.0,28.89,NW,322,6.0,-999.0,86,19.53,,,-99.99,,2013-03-14 18:22:00,
2013-03-14 13:33:00,47.0,43.0,28.89,NW,322,6.0,-999.0,86,19.53,,,-99.99,,2013-03-14 18:33:00,
2013-03-14 13:43:00,47.0,43.0,28.89,NW,322,6.0,-999.0,86,19.53,,,-99.99,,2013-03-14 18:43:00,
2013-03-14 13:52:00,48.0,44.0,28.90,NW,305,6.0,-999.0,85,19.53,,,-99.99,,2013-03-14 18:52:00,
2013-03-14 14:02:00,48.0,44.0,28.90,NW,305,6.0,-999.0,85,19.53,,,-99.99,,2013-03-14 19:02:00,
2013-03-14 14:12:00,48.0,44.0,28.90,NW,305,6.0,-999.0,85,19.53,,,-99.99,,2013-03-14 19:12:00,
2013-03-14 14:22:00,50.0,45.0,28.90,NW,315,4.0,-999.0,83,19.53,,,-99.99,,2013-03-14 19:22:00,
2013-03-14 14:32:00,50.0,45.0,28.90,NW,315,4.0,-999.0,83,19.53,,,-99.99,,2013-03-14 19:32:00,
2013-03-14 14:43:00,50.0,45.0,28.90,NW,315,4.0,-999.0,83,19.53,,,-99.99,,2013-03-14 19:43:00,
2013-03-14 14:52:00,52.0,46.0,28.89,NNW,346,0.0,-999.0,80,19.53,,,-99.99,,2013-03-14 19:52:00,
2013-03-14 15:02:00,52.0,46.0,28.89,NNW,346,0.0,-999.0,80,19.53,,,-99.99,,2013-03-14 20:02:00,
2013-03-14 15:12:00,52.0,46.0,28.89,NNW,346,0.0,-999.0,80,19.53,,,-99.99,,2013-03-14 20:12:00,
2013-03-14 15:22:00,53.0,47.0,28.88,NW,326,5.0,-999.0,79,19.53,,,-99.99,,2013-03-14 20:22:00,
2013-03-14 15:32:00,53.0,47.0,28.88,NW,326,5.0,-999.0,79,19.53,,,-99.99,,2013-03-14 20:32:00,
2013-03-14 15:42:00,54.0,48.0,28.88,North,359,0.0,-999.0,79,19.53,,,-99.99,,2013-03-14 20:42:00,
2013-03-14 15:52:00,54.0,48.0,28.88,North,359,0.0,-999.0,79,19.53,,,-99.99,,2013-03-14 20:52:00,
2013-03-14 16:02:00,54.0,48.0,28.88,North,359,0.0,-999.0,79,19.53,,,-99.99,,2013-03-14 21:02:00,
2013-03-14 16:12:00,54.0,48.0,28.88,North,359,0.0,-999.0,79,19.53,,,-99.99,,2013-03-14 21:12:00,
2013-03-14 16:22:00,53.0,48.0,28.87,ENE,73,0.0,-999.0,82,19.53,,,-99.99,,2013-03-14 21:22:00,
2013-03-14 16:33:00,53.0,48.0,28.87,ENE,73,0.0,-999.0,82,19.53,,,-99.99,,2013-03-14 21:33:00,
2013-03-14 16:43:00,53.0,48.0,28.87,ENE,73,0.0,-999.0,82,19.53,,,-99.99,,2013-03-14 21:43:00,
2013-03-14 16:53:00,54.0,48.0,28.87,ENE,73,0.0,-999.0,81,19.53,,,-99.99,,2013-03-14 21:53:00,
2013-03-14 17:03:00,54.0,48.0,28.87,ENE,73,0.0,-999.0,81,19.53,,,-99.99,,2013-03-14 22:03:00,
2013-03-14 17:13:00,54.0,48.0,28.87,ENE,73,0.0,-999.0,81,19.53,,,-99.99,,2013-03-14 22:13:00,
2013-03-14 17:23:00,55.0,49.0,28.87,ENE,73,0.0,-999.0,79,19.53,,,-99.99,,2013-03-14 22:23:00,
2013-03-14 17:33:00,55.0,49.0,28.87,ENE,73,0.0,-999.0,79,19.53,,,-99.99,,2013-03-14 22:33:00,
2013-03-14 17:42:00,55.0,49.0,28.87,ENE,73,0.0,-999.0,79,19.53,,,-99.99,,2013-03-14 22:42:00,
2013-03-14 17:52:00,56.0,50.0,28.88,ENE,73,0.0,-999.0,79,19.53,,,-99.99,,2013-03-14 22:52:00,
2013-03-14 18:02:00,56.0,50.0,28.88,ENE,73,0.0,-999.0,79,19.53,,,-99.99,,2013-03-14 23:02:00,
2013-03-14 18:12:00,56.0,50.0,28.88,ENE,73,0.0,-999.0,79,19.53,,,-99.99,,2013-03-14 23:12:00,
2013-03-14 18:22:00,55.0,50.0,28.88,ENE,73,0.0,-999.0,82,19.53,,,-99.99,,2013-03-14 23:22:00,
2013-03-14 18:33:00,55.0,50.0,28.88,ENE,73,0.0,-999.0,82,19.53,,,-99.99,,2013-03-14 23:33:00,
2013-03-14 18:43:00,55.0,50.0,28.88,ENE,73,0.0,-999.0,82,19.53,,,-99.99,,2013-03-14 23:43:00,
2013-03-14 18:53:00,54.0,50.0,28.89,ENE,73,0.0,-999.0,85,19.53,,,-99.99,,2013-03-14 23:53:00,
2013-03-14 19:02:00,54.0,50.0,28.89,ENE,73,0.0,-999.0,85,19.53,,,-99.99,,2013-03-15 00:02:00,
2013-03-14 19:12:00,51.0,48.0,28.87,ENE,73,0.0,-999.0,91,19.53,,,-99.99,,2013-03-15 00:12:00,
2013-03-14 19:22:00,51.0,48.0,28.87,ENE,73,0.0,-999.0,91,19.53,,,-99.99,,2013-03-15 00:22:00,
2013-03-14 19:32:00,51.0,48.0,28.87,ENE,73,0.0,-999.0,91,19.53,,,-99.99,,2013-03-15 00:32:00,
2013-03-14 19:42:00,51.0,48.0,28.87,ENE,73,0.0,-999.0,91,19.53,,,-99.99,,2013-03-15 00:42:00,
2013-03-14 19:52:00,50.0,48.0,28.87,ENE,73,0.0,-999.0,92,19.53,,,-99.99,,2013-03-15 00:52:00,
2013-03-14 20:02:00,50.0,48.0,28.87,ENE,73,0.0,-999.0,92,19.53,,,-99.99,,2013-03-15 01:02:00,
2013-03-14 20:12:00,50.0,48.0,28.87,ENE,73,0.0,-999.0,92,19.53,,,-99.99,,2013-03-15 01:12:00,
2013-03-14 20:22:00,48.0,46.0,28.87,ENE,73,0.0,-999.0,93,19.53,,,-99.99,,2013-03-15 01:22:00,
2013-03-14 20:33:00,48.0,46.0,28.87,ENE,73,0.0,-999.0,93,19.53,,,-99.99,,2013-03-15 01:33:00,
2013-03-14 20:43:00,48.0,46.0,28.87,ENE,73,0.0,-999.0,93,19.53,,,-99.99,,2013-03-15 01:43:00,
2013-03-14 20:52:00,46.0,44.0,28.87,ENE,73,0.0,-999.0,94,19.53,,,-99.99,,2013-03-15 01:52:00,
2013-03-14 21:02:00,46.0,44.0,28.87,ENE,73,0.0,-999.0,94,19.53,,,-99.99,,2013-03-15 02:02:00,
2013-03-14 21:12:00,46.0,44.0,28.87,ENE,73,0.0,-999.0,94,19.53,,,-99.99,,2013-03-15 02:12:00,
2013-03-14 21:22:00,44.0,43.0,28.86,ENE,73,0.0,-999.0,96,19.53,,,-99.99,,2013-03-15 02:22:00,
2013-03-14 21:32:00,44.0,43.0,28.86,ENE,73,0.0,-999.0,96,19.53,,,-99.99,,2013-03-15 02:32:00,
2013-03-14 21:42:00,44.0,43.0,28.86,ENE,73,0.0,-999.0,96,19.53,,,-99.99,,2013-03-15 02:42:00,
2013-03-14 21:52:00,43.0,42.0,28.86,ENE,73,0.0,-999.0,97,19.53,,,-99.99,,2013-03-15 02:52:00,
2013-03-14 22:02:00,43.0,42.0,28.86,ENE,73,0.0,-999.0,97,19.53,,,-99.99,,2013-03-15 03:02:00,
2013-03-14 22:12:00,43.0,42.0,28.86,ENE,73,0.0,-999.0,97,19.53,,,-99.99,,2013-03-15 03:12:00,
2013-03-14 22:22:00,40.0,39.0,28.85,ENE,73,0.0,-999.0,98,19.53,,,-99.99,,2013-03-15 03:22:00,
2013-03-14 22:33:00,40.0,39.0,28.85,ENE,73,0.0,-999.0,98,19.53,,,-99.99,,2013-03-15 03:33:00,
2013-03-14 22:43:00,40.0,39.0,28.85,ENE,73,0.0,-999.0,98,19.53,,,-99.99,,2013-03-15 03:43:00,
2013-03-14 22:53:00,40.0,40.0,28.84,ENE,73,0.0,-999.0,99,19.53,,,-99.99,,2013-03-15 03:53:00,
2013-03-14 23:03:00,40.0,40.0,28.84,ENE,73,0.0,-999.0,99,19.53,,,-99.99,,2013-03-15 04:03:00,
2013-03-14 23:12:00,40.0,40.0,28.84,ENE,73,0.0,-999.0,99,19.53,,,-99.99,,2013-03-15 04:12:00,
2013-03-14 23:22:00,40.0,39.0,28.84,East,98,0.0,-999.0,98,19.53,,,-99.99,,2013-03-15 04:22:00,
2013-03-14 23:33:00,40.0,39.0,28.84,East,98,0.0,-999.0,98,19.53,,,-99.99,,2013-03-15 04:33:00,
2013-03-14 23:43:00,40.0,39.0,28.84,East,98,0.0,-999.0,98,19.53,,,-99.99,,2013-03-15 04:43:00,
2013-03-14 23:53:00,40.0,40.0,28.84,East,98,0.0,-999.0,99,19.53,,,-99.99,,2013-03-15 04:53:00,